User: anonymous   Login
Location: Unspecified
(0.0000°N, 0.0000°E)
Time: 18:30:00
(UTC+01:00)
Language:

Cosmos 1898 Rocket - Orbit

View from above orbital plane
View from above orbital plane
View from above satellite
View from above satellite

Ground track
Ground track

The orbit data is extracted from the following two-line orbital elements,

1 18586U 87098B   14303.38459245  .00000341  00000-0  12486-3 0  1625
2 18586 074.0074 264.2564 0021091 191.7402 282.1070 14.36482366409385
Epoch (UTC): 30 October 2014 09:13:48
Eccentricity: 0.0021091
inclination: 74.0074°
perigee height: 755 km
apogee height: 785 km
right ascension of ascending node: 264.2564°
argument of perigee: 191.7402°
revolutions per day: 14.36482366
mean anomaly at epoch: 282.1070°
orbit number at epoch: 40938

The dashed part of the orbit path shows where the satellite is in the earth's shadow,  

DLR